This demonstration page uses our WeatherBlox Daily Observations layout. Learn more.

Left ArrowRight Arrow

41.86663, -103.66717

Hourly Observations for August 19, 2020

Temp ( °F °C ) Dew Point ( °F °C ) Humidity (%) Winds ( mph kmh ) Pressure ( in mb ) Visibility ( mi km ) Precip ( " mm )
12:53 am 00:53 Clear 72 22.2 54 12.2 53 53 N 7 11 29.94 1014 10 16.0934 0 0
1:53 am 01:53 Clear 69 20.6 55 12.8 61 61 Calm 29.93 1014 10 16.0934 0 0
2:53 am 02:53 Clear 71 21.7 53 11.7 53 53 ENE 5 7 29.92 1013 10 16.0934 0 0
3:53 am 03:53 Clear 67 19.4 54 12.2 63 63 N 6 9 29.92 1013 10 16.0934 0 0
4:53 am 04:53 Clear 66 18.9 53 11.7 63 63 N 5 7 29.93 1014 10 16.0934 0 0
5:53 am 05:53 Clear 66 18.9 54 12.2 65 65 WSW 3 6 29.93 1014 10 16.0934 0 0
6:53 am 06:53 Sunny 67 19.4 56 13.3 68 68 undefined N/A 29.94 1014 10 16.0934 0 0
7:53 am 07:53 Sunny 72 22.2 56 13.3 57 57 N 3 6 29.96 1014 10 16.0934 0 0
8:53 am 08:53 Sunny 77 25 56 13.3 48 48 NNE 7 11 29.96 1015 10 16.0934 0 0
9:53 am 09:53 Sunny 82 27.8 53 11.7 37 37 VRB 3 6 29.95 1014 10 16.0934 0 0
10:53 am 10:53 Sunny 85 29.4 54 12.2 35 35 VRB 6 9 29.92 1013 10 16.0934 0 0
11:53 am 11:53 Sunny 88 31.1 55 12.8 33 33 E 8 13 29.91 1013 10 16.0934 0 0
12:53 pm 12:53 Sunny 92 33.3 51 10.6 25 25 E 10 17 29.88 1012 10 16.0934 0 0
1:53 pm 13:53 Sunny 93 33.9 54 12.2 27 27 E 13 20 29.86 1011 10 16.0934 0 0
2:53 pm 14:53 Sunny 91 32.8 58 14.4 33 33 E 10 17 29.83 1010 10 16.0934 0 0
3:53 pm 15:53 Sunny 94 34.4 55 12.8 27 27 E 12 19 29.8 1009 10 16.0934 0 0
4:53 pm 16:53 Sunny 89 31.7 59 15 36 36 E 8 13 29.8 1009 10 16.0934 0 0
5:53 pm 17:53 Mostly Cloudy 87 30.6 53 11.7 31 31 W 5 7 29.81 1010 10 16.0934 0 0
6:53 pm 18:53 Mostly Sunny 82 27.8 53 11.7 37 37 S 7 11 29.81 1010 10 16.0934 0.001 0.001
7:53 pm 19:53 Clear 78 25.6 56 13.3 47 47 ENE 5 7 29.86 1011 10 16.0934 0 0
8:53 pm 20:53 Clear 74 23.3 58 14.4 57 57 SSW 3 6 29.86 1011 10 16.0934 0 0
9:53 pm 21:53 Clear 74 23.3 57 13.9 56 56 S 9 15 29.88 1012 10 16.0934 0 0
10:53 pm 22:53 Clear 70 21.1 58 14.4 66 66 ESE 3 6 29.87 1011 10 16.0934 0 0
11:53 pm 23:53 Clear 68 20 57 13.9 68 68 NE 6 9 29.88 1012 10 16.0934 0 0

Powered by AerisWeather